This is the latest recevied weather packets stored in our database for station/object KC2WGU. If no packets are shown the sender has not sent any weather packets the latest 1 day(s).
| Time | Temp. | Humidity | Pressure | Rain* | Wind** | Luminosity | Snow |
|---|---|---|---|---|---|---|---|
| 1778080221 | 11.67° C | 97% | 1004.2 hPa | 1.02 mm | - | 0 W/m² | - |
| 1778079622 | 11.11° C | 97% | 1004.4 hPa | 1.52 mm | - | 0 W/m² | - |
| 1778079026 | 11.11° C | 97% | 1004.4 hPa | 2.03 mm | - | 0 W/m² | - |
| 1778076024 | 10.56° C | 96% | 1005.1 hPa | 0.76 mm | - | 0 W/m² | - |
| 1778075422 | 10° C | 96% | 1004.8 hPa | 0.25 mm | - | 0 W/m² | - |
| 1778071822 | 10° C | 96% | 1005.1 hPa | 0.25 mm | - | 0 W/m² | - |
| 1778070622 | 10° C | 96% | 1005.1 hPa | 0.76 mm | - | 0 W/m² | - |
| 1778069422 | 10° C | 95% | 1005.2 hPa | 1.02 mm | - | 0 W/m² | - |
| 1778067622 | 10° C | 95% | 1005.7 hPa | 0.76 mm | - | 0 W/m² | - |
| 1778065823 | 10° C | 95% | 1005.6 hPa | 0.51 mm | - | 0 W/m² | - |
| 1778065224 | 9.44° C | 95% | 1005.4 hPa | 0.51 mm | - | 0 W/m² | - |
| 1778061622 | 9.44° C | 94% | 1005.5 hPa | 0.25 mm | - | 0 W/m² | - |
| 1778060422 | 9.44° C | 93% | 1005.6 hPa | 0 mm | - | 0 W/m² | - |
| 1778058622 | 9.44° C | 93% | 1005.4 hPa | 0 mm | - | 0 W/m² | - |
| 1778058023 | 9.44° C | 92% | 1005.5 hPa | 0 mm | - | 0 W/m² | - |
| 1778055022 | 10° C | 91% | 1006.1 hPa | 0 mm | - | 0 W/m² | - |
| 1778054430 | 10° C | 91% | 1006.1 hPa | 0 mm | - | 0 W/m² | - |
| 1778053823 | 10° C | 90% | 1006.2 hPa | 0 mm | - | 0 W/m² | - |
| 1778053222 | 10° C | 90% | 1006.2 hPa | 0 mm | - | 0 W/m² | - |
| 1778052623 | 10.56° C | 90% | 1006.3 hPa | 0 mm | - | 0 W/m² | - |
| 1778052023 | 10.56° C | 90% | 1006.5 hPa | 0 mm | - | 0 W/m² | - |
| 1778051422 | 10.56° C | 89% | 1006.6 hPa | 0 mm | - | 0 W/m² | - |
| 1778050222 | 10.56° C | 89% | 1006.6 hPa | 0 mm | - | 0 W/m² | - |
| 1778049622 | 10.56° C | 89% | 1006.8 hPa | 0 mm | - | 0 W/m² | - |
| 1778049022 | 10.56° C | 89% | 1006.7 hPa | 0 mm | - | 0 W/m² | - |
* Rain latest hour (hover to see other rain measurements)
** Current wind speed in m/s (hover to see current wind gust speed)